Lapse_Rate
5.0 5.2 5.1 5.9 6.4 6.6 6.3 6.2 6.5 1.8 1.9 6.4 6.4 6.5 6.5 6.3 6.4 5.8 6.5 6.5 6.5 6.5 6.5 6.5 6.5 6.5 6.5 5.5 6.4 6.5 6.5 6.5 6.5 6.5 6.5 6.5 6.5 6.5 6.5 6.5 6.5 6.5 6.5 6.5
4.3 4.4 4.6 4.8 5.1 6.1 5.8 5.9 4.3 2.4 3.5 6.5 6.5 6.5 6.5 6.5 6.5 6.5 6.5 6.5 6.5 6.5 6.5 6.5 6.5 6.5 6.3 5.6 6.5 6.5 6.5 6.5 6.5 6.5 6.5 6.5 6.5 6.5 6.5 6.5 6.5 6.5 6.5 6.5
3.7 3.6 3.8 4.0 4.1 4.8 5.2 4.2 6.5 4.8 4.8 5.4 6.5 6.5 6.5 6.5 6.8 6.5 6.5 6.5 6.5 6.5 6.5 6.5 6.5 6.5 6.5 5.9 6.4 6.8 6.6 6.5 6.5 6.5 6.5 6.5 6.5 6.5 6.5 6.5 6.5 6.5 6.5 6.5
3.6 3.7 3.8 4.0 3.6 3.7 4.3 5.1 6.2 5.6 6.5 6.5 6.5 6.5 6.5 6.5 6.5 6.5 6.3 6.5 6.5 6.5 6.5 6.5 6.5 6.5 6.5 6.5 6.6 6.5 6.5 6.5 6.5 6.5 6.5 6.5 6.5 6.5 6.5 6.5 6.5 6.5 6.5 6.5
3.4 3.4 3.6 3.7 3.6 3.7 5.0 6.5 5.8 4.3 6.2 5.8 6.5 6.5 6.5 6.5 6.5 6.5 6.5 6.5 6.5 6.5 6.5 6.5 6.5 6.5 6.5 6.5 6.5 6.5 6.5 6.5 6.5 6.5 6.5 6.5 6.5 6.5 6.5 6.5 6.5 6.5 6.5 6.5
3.7 3.5 3.8 4.4 4.1 4.5 6.3 5.2 5.5 5.6 6.4 6.5 6.5 6.5 6.5 6.5 6.5 6.3 6.6 6.5 6.5 6.5 6.5 6.6 6.7 6.7 6.6 6.5 6.5 6.5 6.5 6.5 6.5 6.5 6.5 6.5 6.5 6.5 6.5 6.5 6.5 6.5 6.5 6.5
4.4 4.6 5.2 4.4 4.2 5.2 5.7 4.8 5.7 6.6 6.5 6.5 6.5 6.5 6.5 6.5 6.5 6.5 6.5 6.5 6.5 6.4 6.6 6.3 6.6 6.7 6.6 6.6 6.5 6.6 6.5 6.5 6.5 6.5 6.5 6.5 6.5 6.5 6.5 6.5 6.5 6.5 6.5 6.5
6.7 4.9 5.2 4.5 5.0 3.4 2.3 1.0 3.4 5.9 6.5 6.6 6.5 6.5 6.5 6.6 6.6 6.5 6.5 6.5 6.2 4.9 6.0 6.5 6.5 6.5 6.5 6.5 6.5 6.5 6.5 6.5 6.5 6.5 6.5 6.5 6.5 6.5 6.5 6.5 6.5 6.5 6.5 6.5
8.5 5.2 5.0 3.8 3.3 4.6 1.4 0.2 0.6 1.8 6.3 6.5 6.4 5.6 5.8 6.5 6.5 6.5 6.7 6.0 4.6 5.7 6.5 6.5 6.5 6.5 6.5 6.5 6.5 6.5 6.5 6.5 6.5 6.5 6.5 6.5 6.5 6.5 6.8 6.5 6.5 6.7 6.7 6.6
8.9 5.8 4.4 4.0 3.0 2.9 1.0 -0.1 0.5 1.6 6.1 6.2 5.1 6.0 6.2 5.5 5.5 6.5 6.0 5.7 6.0 5.1 6.5 6.5 6.5 6.5 6.5 6.5 6.5 6.5 6.5 6.5 6.5 6.5 6.5 6.5 6.5 6.7 6.6 6.5 6.5 6.8 6.8 5.9
9.1 9.0 6.3 4.7 4.2 4.1 -0.2 0.3 1.7 1.6 4.5 3.9 4.1 4.2 5.4 5.4 5.1 6.5 4.3 5.9 6.1 6.5 6.5 6.5 6.5 6.5 6.5 6.5 6.5 6.5 6.5 6.5 6.5 6.5 6.5 6.5 6.4 6.6 6.5 6.1 5.4 6.0 6.7 6.4
8.1 7.6 7.2 7.3 6.3 5.5 3.5 1.6 2.2 1.9 3.0 3.6 1.5 1.3 1.6 2.1 3.5 4.4 3.5 4.8 4.9 6.5 6.5 6.5 6.5 6.5 6.5 6.5 6.5 6.5 6.5 6.5 6.5 6.5 6.5 3.7 2.8 2.8 2.9 4.5 5.4 5.7 5.8 5.6
8.7 8.6 7.3 6.6 5.9 4.7 2.1 -4.6 -3.0 -1.8 -1.4 1.3 3.7 2.4 2.0 2.9 -1.2 0.5 2.7 2.2 1.7 1.6 0.3 2.0 6.0 6.5 6.5 6.5 6.5 6.5 6.5 0.8 6.5 6.5 5.7 2.7 0.7 4.8 4.6 4.4 3.8 5.1 6.5 6.6
6.7 6.9 7.6 6.3 5.9 5.1 2.4 -0.5 -0.2 -0.4 1.4 3.0 2.5 0.8 1.6 2.2 1.7 2.4 -0.2 1.9 2.0 0.7 -0.2 1.5 6.5 6.5 5.1 6.5 6.2 6.5 5.2 4.7 6.5 6.5 4.0 0.8 1.1 2.7 1.4 4.5 5.9 5.8 6.5 6.7
4.8 5.3 5.5 5.7 5.6 3.3 1.1 1.3 2.8 1.0 1.2 3.0 -0.1 0.8 1.3 1.8 0.9 2.4 1.7 -0.2 -0.8 -2.0 1.6 5.7 6.5 1.7 6.0 3.7 5.4 6.5 -0.7 6.5 6.5 6.5 0.7 2.6 2.6 0.8 1.3 2.9 4.8 5.2 5.6 6.2
4.3 4.3 4.2 4.2 4.2 3.5 2.9 1.6 1.3 2.2 -0.6 0.3 6.4 -0.0 -0.2 0.1 -0.5 0.7 1.1 1.3 -0.3 -2.8 -0.2 -1.9 -4.9 -5.1 1.7 6.5 6.5 0.5 -4.1 -4.9 1.2 2.8 -2.3 0.2 2.1 -0.7 -2.5 0.3 2.4 3.9 4.5 5.1
4.4 4.2 4.4 3.5 2.1 -0.4 -0.6 0.9 0.6 3.1 0.9 0.4 3.5 3.7 1.4 -0.5 -0.8 -0.2 -0.2 -0.6 -3.5 -1.8 -5.2 -0.5 -2.9 0.2 1.7 6.5 6.5 1.2 -2.5 -1.9 -3.6 -5.1 -1.1 0.7 -2.5 3.0 -0.1 -0.6 2.1 3.4 1.5 1.3
4.4 4.4 4.0 3.4 2.7 1.3 -1.1 0.3 0.8 1.1 -0.9 0.3 6.6 6.2 3.8 1.3 2.5 0.9 0.3 -0.2 -1.5 0.8 -2.7 -1.1 1.4 1.9 1.1 6.5 1.6 -2.1 -3.7 -2.5 -2.0 -1.2 -2.3 2.1 0.2 0.2 0.5 -0.6 -0.8 1.2 1.4 0.9
3.8 4.0 3.3 1.5 -0.3 -0.2 1.1 2.0 0.8 -1.7 -0.5 -0.3 3.0 6.5 6.5 2.6 4.0 1.0 1.1 0.6 6.2 3.6 4.3 2.3 4.8 6.5 6.5 5.8 2.4 -1.3 -0.7 1.0 3.1 -0.7 -1.6 -0.1 -0.0 1.6 3.1 2.9 2.7 2.2 3.3 3.3
3.2 1.4 2.6 0.5 0.8 3.9 3.0 -0.0 -0.6 -1.6 0.1 1.0 3.3 4.5 6.5 3.7 4.1 3.9 4.1 1.9 6.4 6.5 6.1 3.6 6.5 6.5 -1.7 0.9 0.9 -0.3 0.6 0.4 -2.9 0.6 3.2 2.5 4.1 4.9 4.5 2.9 2.7 2.5 3.5 4.6
-0.3 0.5 0.5 0.5 2.4 1.7 -1.0 0.3 2.9 2.5 4.4 4.0 3.7 3.1 4.4 4.4 6.0 6.1 3.5 6.1 6.0 6.5 6.2 6.5 6.5 6.5 5.1 3.4 2.7 3.2 0.7 0.7 0.7 0.5 1.2 1.3 2.3 2.6 3.5 3.8 4.2 4.6 5.1 5.2
0.1 -0.6 -0.6 -0.4 -0.4 -1.2 4.1 6.4 4.4 5.7 6.5 3.5 3.3 4.9 4.1 5.0 4.2 4.2 4.2 6.5 6.1 6.5 4.2 6.5 6.5 6.5 2.5 3.1 3.2 3.7 2.6 1.2 1.6 2.2 2.3 2.9 3.6 3.5 3.8 4.0 4.1 4.5 4.9 4.9
-0.5 -1.4 -2.4 0.2 0.9 6.4 6.5 6.5 6.5 6.5 3.3 2.5 3.9 5.7 3.7 5.0 5.8 1.6 4.5 6.5 6.5 5.2 6.5 6.5 6.5 2.6 4.0 4.7 4.1 3.7 3.9 3.2 2.6 3.0 3.5 3.6 3.5 3.5 3.3 3.5 3.6 3.9 3.7 4.0
-3.2 -1.2 6.5 6.0 6.5 6.5 6.1 6.1 4.8 3.3 1.9 4.2 4.6 3.4 3.8 4.2 4.0 3.6 6.5 6.3 5.9 6.5 6.5 6.5 6.4 3.9 4.3 5.8 4.6 3.3 3.9 3.8 3.6 3.8 3.9 3.5 3.3 3.1 2.6 3.0 3.3 3.0 2.8 3.6
-2.8 -0.7 6.5 6.5 0.8 -0.9 -1.4 -1.1 1.1 2.2 3.6 5.0 4.9 3.9 5.4 3.7 6.5 6.1 6.5 6.5 6.5 6.5 6.5 6.5 3.6 5.3 5.8 5.5 5.3 4.3 4.1 3.9 3.0 2.9 2.5 2.8 2.7 2.7 2.5 2.5 2.3 2.2 2.4 2.9
-2.1 -1.3 3.4 -0.9 0.7 -0.4 -2.0 -2.2 0.0 1.6 3.0 4.7 4.9 3.8 6.5 6.5 6.5 6.5 6.5 6.5 6.5 6.5 5.4 6.1 6.6 6.0 5.9 5.4 5.0 5.0 4.3 3.9 3.6 3.2 2.9 2.5 2.8 3.1 3.0 2.6 1.9 2.5 2.5 2.2
-1.8 -0.9 -2.5 -2.2 -1.7 -0.0 -1.4 -1.2 0.4 0.5 2.9 5.5 4.3 6.5 6.5 4.5 6.5 6.5 6.5 6.5 6.5 6.7 6.8 7.1 6.9 6.4 6.2 5.9 5.1 4.8 4.4 4.0 3.5 3.4 3.2 2.8 3.0 2.5 1.8 1.7 3.1 3.4 3.1 2.7
Wind_Speed
20 22 22 19 18 18 4 3 4 1 1 4 3 9 6 6 5 5 7 6 11 9 6 6 10 10 9 8 7 5 7 3 4 8 1 2 2 2 6 3 3 3 2 3
20 21 20 20 22 16 2 3 1 1 1 5 5 4 5 6 6 9 6 7 8 8 5 7 8 6 6 9 9 6 6 3 2 5 4 5 5 5 5 4 3 5 3 3
22 22 22 20 19 20 6 1 3 1 2 2 3 5 8 9 10 17 8 7 9 6 6 10 4 6 3 6 6 9 8 5 7 9 2 4 4 7 6 3 3 3 4 5
23 23 22 19 19 21 5 3 5 5 5 6 14 9 5 7 5 11 9 6 19 11 9 6 13 15 15 5 6 4 6 6 5 10 7 7 10 8 16 6 5 1 4 6
25 25 24 20 19 21 3 5 2 2 3 3 10 12 13 21 20 9 8 12 10 13 13 13 10 2 1 4 5 4 1 4 5 5 16 20 19 10 9 7 5 9 8 8
28 26 23 17 18 13 3 3 3 3 8 8 7 4 9 10 13 3 11 10 10 10 6 11 13 18 14 10 7 8 6 3 1 5 13 4 7 8 9 7 9 3 4 3
29 26 20 20 17 10 1 3 3 3 5 6 4 8 8 7 11 6 7 11 6 3 7 13 11 16 17 20 17 13 5 3 3 3 3 2 1 5 12 11 9 8 5 6
30 27 21 21 16 13 4 3 2 3 4 6 8 16 8 9 9 6 3 6 4 9 4 1 3 1 3 9 11 15 13 3 5 4 4 4 2 3 2 2 3 6 5 5
30 28 23 24 18 11 4 5 3 4 5 10 7 4 5 4 6 9 5 4 8 7 2 1 3 4 4 5 10 9 13 13 5 3 4 2 3 6 8 2 3 6 7 5
31 31 29 24 23 18 8 4 7 5 5 4 5 4 3 5 4 3 4 8 9 5 3 4 5 3 3 5 6 8 6 5 8 6 4 2 3 9 6 1 1 8 5 3
26 32 34 34 30 29 9 4 14 4 5 1 2 3 4 4 3 3 5 3 5 6 5 3 3 4 3 4 3 3 4 4 4 3 3 1 6 2 1 3 3 5 5 2
29 28 26 26 27 29 23 9 15 9 6 5 5 5 4 5 5 2 5 3 2 3 3 3 3 4 3 3 2 5 3 1 1 2 3 4 3 5 4 3 4 5 2 5
22 28 30 27 21 19 11 3 0 3 4 4 5 5 7 10 0 3 2 3 2 4 2 3 2 7 3 3 2 1 7 2 2 4 4 4 4 3 3 4 5 6 7 8
8 12 19 25 28 29 23 4 4 4 4 4 5 2 5 11 8 7 2 2 3 3 3 4 4 4 3 1 3 3 3 4 1 4 5 5 4 3 3 6 8 7 7 8
12 6 5 6 9 16 20 13 13 7 5 4 3 4 5 9 10 14 13 12 6 4 4 4 2 2 3 2 2 2 2 4 2 4 6 5 7 5 4 5 8 6 10 11
26 17 9 2 2 3 2 4 6 19 2 4 3 2 7 10 11 14 11 7 5 3 3 1 1 2 3 3 1 5 5 3 6 5 4 7 8 7 5 4 7 10 10 10
11 20 25 29 25 14 5 3 4 17 2 3 3 3 5 6 4 4 4 5 2 3 2 3 2 3 3 3 0 6 6 7 5 4 1 5 2 5 5 6 13 12 7 7
3 5 6 9 13 12 4 10 15 8 5 5 3 4 4 9 4 4 4 4 3 6 2 1 2 2 2 2 7 6 5 6 6 8 8 8 6 8 9 6 4 8 8 7
2 1 2 5 4 3 1 6 11 17 5 4 3 2 4 7 3 1 3 2 3 1 3 2 1 2 2 6 7 5 5 4 7 5 6 8 7 10 10 8 8 6 10 8
1 3 2 3 3 9 2 5 4 6 5 5 3 1 3 3 4 3 3 2 2 2 2 1 3 3 4 6 7 7 8 8 4 3 7 4 7 9 9 8 9 8 10 10
2 2 2 2 8 3 4 4 5 4 5 3 1 2 2 1 2 2 2 1 1 3 3 2 3 3 4 6 7 8 7 7 8 7 8 8 9 9 10 11 11 10 11 10
2 4 4 3 5 5 8 3 4 6 1 3 2 3 2 3 1 2 2 1 3 1 1 3 3 3 5 5 8 8 7 7 9 7 10 11 10 9 9 9 10 10 10 9
3 4 5 4 5 10 7 7 5 5 3 2 3 4 2 3 1 1 3 5 2 1 3 2 3 4 6 9 7 8 7 7 7 9 9 10 10 9 8 9 9 9 9 9
4 5 8 4 5 0 4 4 3 4 2 3 1 2 1 2 3 0 3 2 2 4 4 3 3 5 8 7 4 3 6 7 8 10 9 9 9 9 8 8 8 7 9 10
4 5 4 2 2 3 3 2 2 3 1 1 2 2 1 2 2 1 2 6 4 3 3 3 5 9 8 8 6 7 8 7 7 7 7 9 8 8 10 8 7 7 9 9
4 6 4 1 2 3 2 0 3 1 1 0 0 1 3 3 0 4 1 2 4 5 4 10 10 11 10 8 6 7 7 7 8 7 8 8 8 9 8 8 7 8 8 8
5 1 1 2 1 3 2 2 2 0 1 2 1 4 3 3 3 3 3 2 8 13 13 11 13 11 12 12 9 8 7 8 8 8 8 9 8 6 6 9 9 7 8 8
Wind_Direction
353 355 355 333 309 308 290 238 256 42 265 178 216 221 195 215 250 239 238 237 242 245 221 238 216 214 218 171 154 196 215 247 232 228 251 194 100 89 185 209 225 240 299 119
353 352 347 346 350 331 263 241 238 20 292 235 230 239 244 239 227 227 223 228 223 202 234 240 200 212 240 179 171 190 185 217 312 322 8 2 69 31 354 299 260 228 295 121
351 345 340 339 343 337 319 226 254 185 181 289 237 230 251 239 217 242 232 239 224 210 238 215 240 230 260 208 219 167 165 194 204 253 206 96 58 19 321 252 254 21 37 91
360 353 347 340 344 335 314 212 240 189 227 229 229 241 259 235 226 226 201 232 220 219 240 235 237 250 246 208 224 210 185 223 148 38 77 85 89 62 43 68 333 63 93 88
357 352 347 344 346 335 240 275 256 246 273 313 223 222 227 245 245 211 230 231 209 217 245 267 264 247 218 74 329 199 178 201 142 91 93 91 72 45 56 48 45 78 88 73
357 351 347 348 351 350 298 330 337 291 281 288 278 3 327 2 349 6 37 349 289 245 21 80 84 83 73 66 41 349 354 32 147 128 150 157 53 21 73 66 38 32 62 32
8 6 7 2 356 346 263 22 308 290 309 40 23 349 333 330 339 308 13 10 38 359 93 110 75 78 71 55 40 31 352 1 348 99 179 200 124 41 89 87 43 24 37 23
13 7 4 10 8 17 75 9 350 340 86 325 358 343 345 321 334 338 53 20 344 297 235 204 151 191 82 39 41 26 17 3 64 119 54 127 122 33 12 356 89 9 346 354
22 20 19 23 28 64 79 40 353 68 107 6 301 320 342 344 335 345 16 354 316 348 248 247 22 53 343 360 347 17 19 34 69 57 91 119 38 330 325 138 207 17 349 358
36 36 35 37 36 63 83 51 7 86 98 345 356 20 304 320 325 280 338 338 343 344 43 58 37 63 42 30 23 347 354 4 41 36 94 73 351 321 330 236 340 328 324 304
44 49 52 53 58 65 64 53 30 93 102 308 358 326 6 325 10 359 303 336 359 359 57 71 50 59 60 86 19 17 33 347 21 5 85 68 350 321 8 224 286 282 297 316
52 48 46 55 60 64 66 73 53 45 78 189 206 218 194 188 234 212 321 131 314 350 82 63 94 71 56 15 42 353 38 118 236 95 216 223 247 181 192 167 239 285 276 296
55 54 53 57 62 63 73 107 338 53 76 42 44 355 322 356 305 190 76 339 300 18 184 125 117 77 72 72 317 18 340 1 90 42 298 257 263 286 182 207 228 262 265 272
36 47 63 66 66 69 71 66 343 79 105 88 321 329 4 328 358 40 164 152 47 82 48 76 77 95 27 73 164 106 217 358 336 273 290 310 341 241 224 273 305 273 266 276
59 63 73 75 86 86 76 70 45 58 108 148 242 306 338 0 8 30 33 44 43 25 39 48 61 87 80 3 82 351 190 205 115 245 223 185 250 254 282 282 291 274 289 297
60 65 70 96 67 43 70 43 27 24 56 94 47 264 353 350 4 21 21 24 46 67 89 139 8 255 94 86 129 255 239 243 189 249 195 211 262 276 248 239 267 285 285 273
72 70 68 72 78 77 72 153 278 333 51 79 38 357 12 340 1 14 0 20 42 80 120 49 104 11 59 86 75 259 250 236 253 245 47 301 226 255 266 241 277 284 275 260
42 66 75 77 83 87 55 21 28 63 88 48 62 321 15 5 356 347 5 2 20 20 143 21 44 338 60 35 251 272 265 282 279 257 209 242 284 291 272 249 272 288 278 265
232 14 335 8 25 43 297 89 56 53 70 96 68 47 296 359 4 333 334 7 49 264 55 8 24 312 45 256 279 272 250 205 253 282 256 263 247 273 284 283 289 263 286 283
42 31 24 15 342 315 44 11 23 24 14 35 82 176 294 1 351 332 338 12 45 51 285 336 62 259 271 261 239 250 267 247 167 302 293 271 270 279 283 268 267 255 276 284
45 51 88 254 339 20 33 45 42 347 30 18 323 149 294 350 5 316 42 265 337 58 281 93 326 302 248 254 260 261 256 250 238 220 248 250 255 269 279 287 283 281 282 282
118 122 88 39 22 36 62 6 355 43 341 329 358 304 246 304 126 30 333 76 31 281 306 65 334 250 253 271 268 271 262 258 262 242 256 264 263 258 261 269 276 278 279 285
54 50 48 35 329 36 51 346 321 341 338 338 340 323 329 324 347 347 28 45 257 325 34 265 239 279 287 283 268 265 261 258 253 264 257 260 264 263 255 272 274 276 280 280
62 56 29 70 359 264 190 200 221 258 231 316 317 265 319 308 348 253 45 232 57 26 19 264 253 267 297 300 252 243 268 260 259 264 268 264 265 271 265 258 264 268 274 279
74 58 62 55 235 253 238 261 317 258 249 344 329 307 66 303 340 49 333 6 337 204 250 248 288 291 296 300 296 261 267 271 264 263 265 270 269 267 274 266 257 253 264 269
72 55 75 308 48 294 338 260 271 285 334 333 174 349 22 347 172 16 204 111 254 291 259 303 313 307 302 296 285 284 269 265 268 265 262 268 268 263 268 279 264 261 252 259
57 348 348 116 127 212 232 191 255 288 349 5 12 24 259 304 332 326 197 237 313 314 307 308 305 299 298 301 295 285 271 273 268 266 263 259 262 262 266 271 275 255 251 250